Location: Miss�
(46.9484°N, 0.1922°W)
Time: 01:55:53
(UTC+00:00)

Cosmos 1339 Rocket - Pass Details

Date: 02 March 2021
Orbit: 943 x 1005 km, 82.9° (Epoch: 16 April)

Event Time Altitude Azimuth Distance (km) Brightness Sun altitude
Rises 19:38:06 0° 351° (N) 3,648 7.8 -19.5°
Reaches altitude 10° 19:40:35 10° 353° (N) 2,706 7.0 -19.9°
Maximum altitude 19:46:48 82° 81° (E) 988 4.4 -21.0°
Drops below altitude 10° 19:53:05 10° 169° (S) 2,731 6.6 -22.0°
Enters shadow 19:53:47 - 170° (S) 2,991 6.8 -22.1°
